Regional Weather Roundup
Issued by NWS State College, PA

Home | Current Version | Previous Version | Graphics & Text | Print | Product List | Glossary Off
Versions: 1 2 3 4 5 6 7 8 9 10 11 12 13 14 15 16 17 18 19 20 21 22 23 24 25 26 27 28 29 30 31 32 33 34 35 36 37 38 39 40 41 42 43 44 45 46 47 48 49 50

000
ASUS41 KCTP 301003
RWRCTP

REGIONAL WEATHER ROUNDUP
NATIONAL WEATHER SERVICE STATE COLLEGE PA
600 AM EDT SAT APR 30 2016

Note: "fair" indicates few or no clouds below 12,000 feet with no
significant weather and/or obstructions to visibility.

* = STATION THAT DOES NOT REPORT PRECIPITATION /E.G. RAIN...SNOW...ETC/
    THUNDER OR FOG.

PAZ002>004-007>009-013>016-020>023-029>032-301100-
WESTERN PENNSYLVANIA

CITY           SKY/WX    TMP DP  RH WIND       PRES   REMARKS
ERIE           CLOUDY    37  34  89 CALM      30.16S
MEADVILLE      CLOUDY    39  39 100 E5        30.13F
FRANKLIN*      CLOUDY    43  39  87 E6        30.15S
NEW CASTLE     CLOUDY    42  41  96 CALM      30.13F
BEAVER COUNTY  NOT AVBL
BUTLER*        CLOUDY    45  41  87 NE5       30.15R
PITTSBURGH INT CLOUDY    45  40  82 CALM      30.12R
PITTSBURGH     CLOUDY    46  42  86 N3        30.11R
INDIANA*       CLOUDY    48  46  93 CALM      30.15S
LATROBE        CLOUDY    48  48 100 CALM      30.12S
WASHINGTON CO* CLOUDY    46  43  87 NE5       30.11S
$$

PAZ004>006-010>012-017>019-024>028-033>037-041-042-045-046-049>053-301100-
CENTRAL PENNSYLVANIA

CITY           SKY/WX    TMP DP  RH WIND       PRES   REMARKS
BRADFORD       CLOUDY    42  39  89 E8        30.14R
DUBOIS         CLOUDY    44  42  93 E5        30.12R
CLEARFIELD     CLOUDY    44  41  89 E12       30.15R
JOHNSTOWN      CLOUDY    45  41  86 NE6       30.09F
ALTOONA        FOG       45  44  97 NE6       30.13S VSB 1/4
STATE COLLEGE  CLOUDY    43  43 100 NE7       30.15S FOG
WILLIAMSPORT   CLOUDY    46  41  82 CALM      30.19R
SELINSGROVE    CLOUDY    45  42  89 CALM      30.20R
FT INDIANTOWN  CLOUDY    43  43 100 VRB1      30.19R
CAPITAL CITY   CLOUDY    46  42  86 NE6       30.18R
HARRISBURG     CLOUDY    45  42  89 NE5       30.18R
YORK           CLOUDY    45  44  97 NE7       30.17R FOG
$$

PAZ038>040-043-044-047-048-054-055-060>062-067>071-301100-
EASTERN PENNSYLVANIA

CITY           SKY/WX    TMP DP  RH WIND       PRES   REMARKS
SCRANTON       CLOUDY    41  38  89 CALM      30.17R
MOUNT POCONO   CLOUDY    37  35  92 CALM      30.15R
ALLENTOWN      CLOUDY    46  38  73 CALM      30.19R
QUAKERTOWN*    CLOUDY    45  39  81 N3        30.19R
READING        CLOUDY    45  39  79 N3        30.19R
LANCASTER      CLOUDY    45  42  89 NE3       30.19R
COATESVILLE    CLOUDY    45  45 100 CALM      30.19R
POTTSTOWN      CLOUDY    45  38  76 CALM      30.20R
BLUE BELL      CLOUDY    43  37  81 CALM      30.18R
DOYLESTOWN     CLOUDY    44  39  82 CALM      30.18R
WILLOW GROVE   NOT AVBL
NORTH PHILA    CLOUDY    48  40  73 N3        30.20R
PHILADELPHIA   CLOUDY    49  38  65 NE6       30.20R
$$




USA.gov is the U.S. government's official web portal to all federal, state and local government web resources and services.